www.pogodaiklimat.ru
ПОГОДА в Вийтасаари
Время
(UTC), дата
13 6.12
14 6.12
15 6.12
16 6.12
17 6.12
18 6.12
19 6.12
20 6.12
21 6.12
22 6.12
23 6.12
00 7.12
01 7.12
02 7.12
03 7.12
04 7.12
05 7.12
06 7.12
07 7.12
08 7.12
09 7.12
10 7.12
11 7.12
12 7.12
13 7.12
14 7.12
15 7.12
16 7.12
17 7.12
18 7.12
19 7.12
20 7.12
21 7.12
22 7.12
23 7.12
00 8.12
01 8.12
02 8.12
03 8.12
04 8.12
05 8.12
06 8.12
07 8.12
08 8.12
09 8.12
10 8.12
11 8.12
12 8.12
13 8.12
14 8.12
15 8.12
16 8.12
17 8.12
18 8.12
19 8.12
20 8.12
21 8.12
22 8.12
23 8.12
00 9.12
01 9.12
02 9.12
03 9.12
04 9.12
05 9.12
06 9.12
07 9.12
08 9.12
09 9.12
10 9.12
11 9.12
12 9.12
13 9.12
14 9.12
15 9.12
16 9.12
17 9.12
18 9.12
19 9.12
20 9.12
21 9.12
22 9.12
23 9.12
00 10.12
01 10.12
02 10.12
03 10.12
04 10.12
05 10.12
06 10.12
07 10.12
08 10.12
09 10.12
10 10.12
11 10.12
12 10.12
13 10.12
14 10.12
15 10.12
16 10.12
17 10.12
18 10.12
19 10.12
20 10.12
21 10.12
22 10.12
23 10.12
00 11.12
01 11.12
02 11.12
03 11.12
04 11.12
05 11.12
06 11.12
07 11.12
08 11.12
09 11.12
10 11.12
11 11.12
12 11.12
13 11.12
14 11.12
15 11.12
16 11.12
17 11.12
18 11.12
19 11.12
20 11.12
21 11.12
22 11.12
23 11.12
00 12.12
01 12.12
02 12.12
03 12.12
04 12.12
05 12.12
06 12.12
07 12.12
08 12.12
09 12.12
10 12.12
11 12.12
12 12.12
13 12.12
14 12.12
15 12.12
16 12.12
17 12.12
18 12.12
19 12.12
20 12.12
21 12.12
22 12.12
23 12.12
00 13.12
01 13.12
02 13.12
03 13.12
04 13.12
05 13.12
06 13.12
07 13.12
08 13.12
09 13.12
10 13.12
11 13.12
12 13.12
Ветер
(напр.,м/с)
Видим. Явления Облачность Т
(С)
Тd
(С)
f
(%)
Тe
(С)
Тes
(С)
Комфортность P
(гПа)
Po
(гПа)
Тmin
(С)
Tmax
(С)
R
(мм)
R24
(мм)
S
(см)
Ю 1-2
{2}
2900 м в посл. час туман 9/6 50 м
[]
+1.3 +1.3 100 -1 -1 982.6 966.7
Ю 1-2
{2}
14 км 10/10 200 м
[]
+1.3 +1.3 100 -1 -1 982.7 966.8
Ю 3-5
{5}
23 км {метель} 9/3 100 м
[]
+1.4 +1.4 100 -3 -3 982.4 966.5
ЮЗ 1-2
{4}
30 км 10/0 100 м
[]
+1.3 +1.3 100 -1 -1 983.3 967.3
ЮЗ 2-3
{4}
40 км 10/0 100 м
[]
+1.2 +1.2 100 -3 -3 983.9 968.0
ЮЗ 2-3
{4}
40 км {метель} 10/0 50 м
[]
+0.9 +0.9 100 -3 -3 984.1 968.2 -0.1 +1.4
ЮЗ 2-3
{3}
35 км 10/0 50 м
[]
+0.8 +0.8 100 -3 -3 984.4 968.4
Ю 2-4
{5}
4700 м дымка 10/0 50 м
[]
+0.7 +0.7 100 -3 -3 984.8 968.8
З 1-3
{5}
1700 м дымка 10/0 50 м
[]
+0.7 +0.7 100 -2 -2 985.4 969.4
ЮЗ 2-3
{4}
5000 м дымка 10/0 50 м
[]
+0.8 +0.8 100 -3 -3 985.9 969.9
Ю 1-2
{2}
1100 м дымка ?/? +0.8 +0.8 100 -1 -1 986.2 970.2
ЮЗ 2-4
{4}
3300 м в посл. час морось 10/0 50 м
[]
+1.1 +1.1 100 -3 -3 986.6 970.7
ЮЗ 2-4
{4}
50 км 9/6 200 м
[]
+0.8 +0.8 100 -3 -3 986.9 970.9
ЮЗ 2-3
{4}
50 км 8/0
[]
+0.1 +0.1 100 -4 -4 987.3 971.3
ЮЗ 2-4
{5}
50 км 6/0
[]
-0.2 -0.2 100 -4 -4 987.5 971.4
Ю 1-2
{4}
35 км ясно -1.0 -1.0 100 -3 -3 987.5 971.4
Ю 2-3
{3}
35 км 8/0 100 м
[]
-1.2 -1.2 100 -5 -5 987.5 971.4
Ю 2-3
{5}
40 км 10/0 100 м
[]
-0.5 -0.5 100 -5 -5 987.6 971.6 -1.3 +1.1 0
Ю 2-5
{5}
30 км 9/0 100 м
[]
-0.4 -0.4 100 -4 -4 987.7 971.6
Ю 2-5
{6}
50 км 10/0 100 м
[]
-0.5 -0.5 100 -5 -5 987.4 971.3
Ю 3-5
{6}
35 км 10/0 100 м
[]
-0.4 -0.4 100 -5 -5 986.8 970.8
ЮВ 4-7
{7}
17 км осадки 10/0 50 м
[]
-0.1 -0.1 100 -6 -6 986.2 970.2
ЮВ 2-4
{6}
1400 м слаб. снег 10/0 50 м
[]
0.0 0.0 100 -4 -4 985.2 969.2 0.2
В 1-2
{3}
2000 м слаб. снег {дождь} ?/? -0.1 -0.1 100 -2 -2 984.2 968.2 1
штиль 0-1
{2}
1200 м слаб. снег 10/0 100 м
[]
-0.1 -0.1 100 -2 -2 983.3 967.3 0.9
штиль 0-2
{2}
13 км слаб. снег 10/10 50 м
[]
-0.2 -0.2 100 -2 -2 982.1 966.2 0.4
штиль 0-1
{3}
3700 м слаб. снег 10/0 50 м
[]
-0.2 -0.2 100 -2 -2 981.3 965.3 0.1
штиль 0-1
{2}
2700 м слаб. снег 10/0 100 м
[]
-0.2 -0.2 100 -2 -2 980.6 964.7 0.3
штиль 0-1
{2}
1700 м слаб. снег 10/0 100 м
[]
-0.3 -0.3 100 -2 -2 980.1 964.1 0.6
С 1-2
{2}
500 м снег {дождь} ?/? -0.3 -0.3 100 -3 -3 979.8 963.8 -0.6 0.0 2
С 1-2
{2}
2000 м слаб. снег 10/10 100 м
[]
-0.3 -0.3 100 -3 -3 979.4 963.4 1
С 1-3
{3}
12 км слаб. снег 9/9 100 м
[]
-0.4 -0.4 100 -3 -3 979.2 963.3 0.1
СЗ 1-2
{3}
6000 м слаб. снег 10/0 100 м
[]
-0.5 -0.5 100 -3 -3 979.3 963.4
СЗ 1-2
{3}
2100 м слаб. снег 10/0 100 м
[]
-0.4 -0.4 100 -3 -3 979.5 963.6 0.2
СЗ 1-3
{3}
6000 м слаб. ливневой снег 10/0 100 м
[]
-0.3 -0.3 100 -3 -3 979.7 963.7 0.1
З 1-1
{2}
50 км в посл. час переохл. осадки (гололёд) 9/4 100 м
[]
-0.4 -0.4 100 -3 -3 979.8 963.9
З 1-2
{3}
29 км слаб. ливневой снег 10/0 50 м
[]
-0.7 -0.7 100 -3 -3 979.9 963.9
штиль 0-1
{3}
16 км слаб. ливневой снег 10/0 100 м
[]
-1.0 -1.0 100 -2 -2 980.3 964.3
штиль 0-1
{2}
35 км слаб. ливневой дождь 10/0 100 м
[]
-0.9 -0.9 100 -2 -2 980.3 964.3
З 1-3
{3}
12 км слаб. ливневой снег 10/0 200 м
[]
-1.1 -1.1 100 -3 -3 980.7 964.8
З 1-2
{2}
26 км слаб. ливневой снег 10/0 200 м
[]
-1.4 -1.4 100 -4 -4 980.9 964.9
З 1-2
{3}
40 км слаб. ливневой снег 10/0 200 м
[]
-1.4 -1.4 100 -4 -4 981.2 965.2 -1.5 -0.3 <0.5
З 1-2
{3}
10 км 10/0 100 м
[]
-1.6 -1.6 100 -4 -4 981.5 965.5
З 1-1
{3}
9000 м слаб. дождь 10/0 100 м
[]
-1.6 -1.6 100 -4 -4 982.2 966.2
ЮЗ 1-3
{3}
6000 м слаб. снег 10/0 200 м
[]
-1.6 -1.6 100 -4 -4 982.8 966.7 0.1
штиль 0-1
{4}
1500 м слаб. ливневой снег 10/0 200 м
[]
-1.5 -1.5 100 -3 -3 982.7 966.6
штиль 0-1
{3}
17 км в посл. час снег 10/0 200 м
[]
-1.5 -1.5 100 -3 -3 982.5 966.5 0.2
ЮЗ 1-4
{4}
13 км слаб. дождь 10/0 100 м
[]
-1.4 -1.4 100 -4 -4 983.0 967.0
З 1-5
{5}
50 км в посл. час снег 10/0 200 м
[]
-1.0 -1.0 100 -3 -3 983.0 966.9
Ю 1-2
{4}
50 км 10/0 200 м
[]
-1.0 -1.0 100 -3 -3 982.7 966.7
Ю 1-3
{3}
45 км {ливн. осадки, снег} 9/9 200 м
[]
-1.6 -1.6 100 -4 -4 982.4 966.3
Ю 2-4
{4}
50 км 10/0 600 м
[]
-1.8 -1.8 100 -6 -6 981.9 965.8
Ю 2-4
{4}
50 км 9/9 300 м
[]
-2.0 -2.0 100 -6 -6 981.2 965.2
ЮВ 2-4
{4}
50 км в посл. час снег {ливн. осадки} 10/10 100 м
[]
-1.5 -1.5 100 -6 -6 980.2 964.2 -2.1 -0.9
ЮВ 2-4
{5}
40 км 9/0 200 м
[]
-1.3 -1.3 100 -5 -5 979.1 963.1
ЮВ 3-5
{6}
50 км 9/0 100 м
[]
-1.4 -1.4 100 -7 -7 978.1 962.1
ЮВ 3-5
{5}
19 км слаб. снег {туман} 10/0 200 м
[]
-1.4 -1.4 100 -7 -7 976.0 960.1
В 3-6
{6}
2200 м слаб. снег 10/10 100 м
[]
-1.2 -1.2 100 -6 -6 973.6 957.7 0.1
В 3-7
{7}
1500 м слаб. снег 10/0 100 м
[]
-0.8 -0.8 100 -6 -6 971.2 955.4 0.5
В 3-6
{7}
400 м снег {туман} 10/0 50 м
[]
-0.6 -0.6 100 -6 -6 969.4 953.6 2
ЮВ 3-6
{7}
8000 м морось 10/0 100 м
[]
-0.1 -0.1 100 -5 -5 968.3 952.6 0.7
Ю 3-5
{7}
13 км слаб. дождь со снегом 10/0 100 м
[]
0.0 0.0 100 -5 -5 967.9 952.2 0.1
Ю 3-5
{5}
13 км ливневой дождь {снег} 10/0 100 м
[]
+0.4 +0.4 100 -4 -4 967.1 951.4 0.2
Ю 4-8
{8}
8000 м слаб. дождь 10/10 200 м
[]
+0.6 +0.6 100 -5 -5 966.2 950.5 0.4
ЮЗ 5-13
{13}
1300 м слаб. снег 10/0 200 м
[]
+0.4 +0.4 100 -6 -6 966.2 950.6 2
Ю 4-9
{10}
1700 м слаб. снег 10/0 200 м
[]
+0.3 +0.3 100 -5 -5 965.8 950.2 -1.5 +0.9 0.7 <0.5
ЮЗ 6-11
{12}
1400 м слаб. снег 10/0 200 м
[]
+0.2 +0.2 100 -7 -7 966.0 950.3 0.8
ЮЗ 7-14
{15}
6000 м слаб. снег 10/0 300 м
[]
+0.4 +0.4 100 -7 -7 967.9 952.2 0.3
ЮЗ 5-13
{14}
5000 м слаб. снег {дождь} 10/10 300 м
[]
+0.2 +0.2 100 -6 -6 969.4 953.7 0.1
ЮЗ 5-10
{12}
8000 м снежные зёрна 10/0 300 м
[]
+0.1 +0.1 100 -6 -6 970.9 955.1 0.1
ЮЗ 5-9
{12}
3800 м слаб. снег 10/0 200 м
[]
0.0 0.0 100 -6 -6 972.4 956.6
З 5-10
{11}
16 км слаб. дождь 10/0 300 м
[]
+0.1 -0.3 97 -6 -6 974.5 958.7
З 5-9
{12}
40 км в посл. час зёрна 10/0 300 м
[]
-0.5 -1.2 95 -7 -7 976.9 961.0
З 4-9
{9}
50 км в посл. час дождь 9/0 300 м
[]
-0.9 -1.7 94 -7 -7 978.9 963.0
З 4-8
{10}
45 км {ливн. осадки, снег} 9/0 300 м
[]
-1.3 -2.2 94 -7 -7 980.7 964.7
З 4-9
{10}
50 км в посл. час зёрна 9/0 300 м
[]
-1.5 -2.4 94 -7 -7 982.7 966.6
З 4-8
{13}
50 км в посл. час осадки 10/0 300 м
[]
-1.7 -3.0 91 -8 -8 984.2 968.1
З 4-8
{9}
50 км {ливн. осадки, снег} 10/0 300 м
[]
-2.0 -3.1 92 -8 -8 985.6 969.4 -2.0 +0.4
З 4-8
{9}
35 км 10/0 300 м
[]
-2.2 -3.5 91 -8 -8 987.2 971.0
З 4-8
{9}
50 км в посл. час осадки 10/0 300 м
[]
-2.5 -4.4 87 -9 -9 988.6 972.4
З 3-7
{10}
45 км {ливн. осадки, туман} 10/0 300 м
[]
-2.6 -3.9 91 -8 -8 990.0 973.7
СЗ 3-8
{9}
50 км 10/0 300 м
[]
-2.7 -4.8 85 -8 -8 991.0 974.8
З 3-6
{9}
50 км 10/0 300 м
[]
-3.0 -4.7 88 -8 -8 992.2 975.9
З 4-7
{8}
19 км туман местами {ливн. осадки} 10/0 300 м
[]
-3.3 -4.1 94 -10 -10 993.3 977.0
З 3-6
{7}
22 км ливневой дождь 10/0 300 м
[]
-3.3 -4.1 94 -9 -9 994.6 978.3
З 3-5
{7}
17 км 10/0 300 м
[]
-3.4 -4.0 96 -9 -9 995.9 979.5
З 3-6
{6}
9000 м снежные зёрна {ливн. осадки} 10/0 200 м
[]
-3.5 -3.9 97 -9 -9 996.7 980.3
З 3-5
{7}
9000 м слаб. снег 10/0 200 м
[]
-3.4 -3.5 99 -9 -9 997.9 981.5
СЗ 3-5
{6}
21 км слаб. снег 10/0 300 м
[]
-3.3 -3.6 98 -9 -9 999.3 982.9
СЗ 2-5
{5}
50 км в посл. час снег {ливн. осадки} 9/3 1000 м
[]
-3.9 -4.3 97 -8 -8 1000.8 984.3 -3.9 -2.0 <0.5
З 2-5
{5}
50 км 9/0 1500 м
[]
-4.2 -4.4 99 -9 -9 1002.0 985.5
З 3-6
{6}
50 км ясно -4.4 -4.5 99 -10 -10 1003.3 986.8
СЗ 3-6
{6}
35 км {ливн. осадки, туман} ясно -4.8 -4.9 99 -10 -10 1004.5 987.9
З 2-5
{6}
50 км ясно -4.8 -5.4 96 -9 -9 1005.7 989.1
СЗ 3-6
{8}
50 км 10/0 200 м
[]
-4.7 -5.2 96 -10 -10 1006.9 990.2
СЗ 2-4
{6}
50 км {ливн. осадки, туман} 10/0 300 м
[]
-4.3 -4.8 96 -9 -9 1008.1 991.4
СЗ 2-5
{5}
50 км 9/0 300 м
[]
-4.5 -5.1 96 -9 -9 1009.3 992.6
СЗ 2-4
{5}
50 км 9/0 200 м
[]
-4.9 -5.3 97 -9 -9 1010.0 993.3
З 2-5
{6}
50 км 10/0 200 м
[]
-4.5 -4.8 98 -9 -9 1011.0 994.3
З 1-2
{4}
50 км 10/0 200 м
[]
-4.5 -4.7 99 -7 -7 1012.4 995.7
З 2-4
{4}
50 км 9/0 300 м
[]
-4.6 -5.1 96 -9 -9 1012.9 996.2
ЮЗ 1-3
{4}
35 км ясно -5.9 -6.0 99 -8 -8 1013.0 996.2 -5.9 -3.9
ЮЗ 2-3
{3}
40 км ясно -6.9 -6.9 100 -12 -12 1013.8 996.9
ЮЗ 3-4
{4}
50 км ясно -7.8 -7.8 100 -14 -14 1014.1 997.2
ЮЗ 2-4
{4}
50 км 6/6 100 м
[]
-9.1 -9.2 99 -14 -14 1014.9 997.8
Ю 2-2
{5}
6000 м дымка 10/0 50 м
[]
-8.8 -8.8 100 -13 -13 1015.1 998.1
Ю 2-4
{4}
50 км 10/0 50 м
[]
-7.5 -7.5 100 -12 -12 1014.5 997.5
Ю 3-5
{6}
50 км 10/0 100 м
[]
-7.3 -7.3 100 -13 -13 1014.1 997.2
Ю 3-6
{6}
45 км 9/0 100 м
[]
-6.7 -6.7 100 -13 -13 1013.9 997.1
Ю 4-7
{7}
50 км 9/4 100 м
[]
-6.4 -6.4 100 -13 -13 1013.2 996.3
Ю 4-6
{7}
50 км 9/1 200 м
[]
-5.9 -5.9 100 -13 -13 1012.5 995.7
Ю 4-8
{8}
50 км 9/1 200 м
[]
-5.2 -5.3 99 -12 -12 1011.6 994.8
Ю 4-8
{8}
50 км 10/1 300 м
[]
-4.7 -5.0 98 -11 -11 1010.5 993.8
Ю 6-10
{10}
50 км 10/8 200 м
[]
-4.0 -4.4 97 -12 -12 1009.3 992.7 -9.3 -4.0 <0.5
Ю 6-10
{11}
50 км 9/4 200 м
[]
-3.2 -3.8 96 -11 -11 1008.0 991.5
Ю 5-9
{11}
45 км 10/0 300 м
[]
-2.7 -3.7 93 -10 -10 1007.8 991.3
Ю 5-10
{11}
50 км в посл. час переохл. осадки (гололёд) 9/9 300 м
[]
-2.3 -3.3 93 -9 -9 1006.4 989.9
Ю 6-12
{13}
45 км в посл. час зёрна 10/10 300 м
[]
-1.8 -3.4 89 -9 -9 1004.9 988.4
Ю 6-11
{13}
6000 м слаб. снег 10/0 600 м
[]
-1.4 -3.0 89 -8 -8 1004.1 987.7
Ю 6-11
{12}
5000 м слаб. снег 10/10 300 м
[]
-1.3 -1.6 98 -9 -9 1002.8 986.4 0.3
Ю 6-10
{13}
24 км снежные зёрна 10/0 300 м
[]
-0.8 -1.4 96 -8 -8 1002.2 985.9
Ю 6-11
{12}
7000 м слаб. снег 10/0 300 м
[]
-0.1 -0.7 96 -7 -7 1001.5 985.2
Ю 6-10
{11}
2900 м слаб. снег {дождь} 10/0 300 м
[]
0.0 0.0 100 -7 -7 1001.5 985.3
Ю 4-8
{11}
7000 м снежные зёрна 10/0 200 м
[]
+0.5 +0.5 100 -5 -5 1001.7 985.5
Ю 3-7
{9}
7000 м слаб. ледяной дождь 10/0 100 м
[]
+0.5 +0.5 100 -4 -4 1002.0 985.8 0.1
Ю 3-7
{7}
16 км в посл. час снег {дождь} 10/0 100 м
[]
+0.9 +0.9 100 -4 -4 1002.5 986.3 -4.0 +0.9
Ю 4-8
{8}
50 км 10/0 200 м
[]
+1.3 +1.3 100 -4 -4 1003.2 987.0
Ю 3-6
{7}
35 км 10/0 200 м
[]
+1.4 +1.4 100 -3 -3 1003.7 987.5
Ю 3-5
{7}
18 км 10/0 200 м
[]
+1.3 +1.3 100 -3 -3 1004.0 987.7
Ю 3-5
{6}
12 км 10/0 100 м
[]
+1.2 +1.2 100 -4 -4 1004.5 988.3
Ю 3-5
{6}
8000 м дымка 10/0 100 м
[]
+1.3 +1.3 100 -3 -3 1004.5 988.3
Ю 3-5
{5}
7000 м дымка 10/0 100 м
[]
+1.2 +1.2 100 -4 -4 1004.1 987.9
Ю 3-5
{6}
7000 м дымка 10/0 50 м
[]
+1.2 +1.2 100 -4 -4 1004.2 988.0
Ю 4-6
{7}
12 км 10/0 100 м
[]
+1.4 +1.4 100 -4 -4 1004.0 987.7
Ю 3-5
{6}
50 км 10/0 100 м
[]
+1.3 +1.3 100 -3 -3 1003.8 987.6
Ю 3-7
{7}
50 км 10/0 200 м
[]
+1.1 +1.1 100 -4 -4 1003.9 987.7
Ю 4-7
{8}
8000 м слаб. дождь со снегом 10/0 200 м
[]
+0.5 +0.5 100 -5 -5 1003.9 987.6 0.1
Ю 3-7
{8}
3700 м сильн. снег {дождь} 10/0 100 м
[]
+0.4 +0.4 100 -4 -4 1003.8 987.5 +0.3 +1.5 0.4 <0.5
Ю 3-5
{7}
4400 м слаб. снег 10/0 100 м
[]
+0.3 +0.3 100 -5 -5 1004.2 987.9 0.2
Ю 4-7
{7}
3000 м слаб. снег 10/0 100 м
[]
+0.2 +0.2 100 -6 -6 1004.3 988.0 0.4
Ю 3-7
{7}
3300 м сильн. снег {дождь} 10/0 100 м
[]
+0.2 +0.2 100 -5 -5 1004.2 987.9 0.4
Ю 3-6
{6}
1600 м слаб. снег 10/0 100 м
[]
+0.1 +0.1 100 -5 -5 1004.1 987.8 0.4
Ю 3-6
{6}
2600 м слаб. снег 10/0 100 м
[]
+0.1 +0.1 100 -5 -5 1003.7 987.4 0.6
Ю 4-7
{7}
3900 м слаб. снег {дождь} 10/10 100 м
[]
+0.2 +0.2 100 -6 -6 1003.4 987.2 0.3
Ю 5-9
{9}
8000 м слаб. дождь со снегом 10/10 100 м
[]
0.0 0.0 100 -6 -6 1003.5 987.2 0.1
Ю 5-8
{9}
14 км снежные зёрна 10/10 200 м
[]
-0.3 -0.3 100 -7 -7 1003.5 987.2 0.1
Ю 5-9
{10}
11 км туман местами {снег, дождь} 10/10 200 м
[]
-0.9 -0.9 100 -8 -8 1003.5 987.1
Ю 5-9
{9}
25 км в посл. час дождь 10/10 200 м
[]
-1.0 -1.1 99 -8 -8 1003.0 986.7
Ю 4-8
{9}
29 км 10/10 200 м
[]
-1.0 -1.2 99 -7 -7 1002.5 986.1
Ю 4-7
{8}
40 км {снег, дождь} 10/10 700 м
[]
-0.9 -1.3 97 -7 -7 1002.3 985.9 -1.0 +0.4
Ю 4-6
{8}
45 км 10/10 300 м
[]
-0.8 -1.2 97 -7 -7 1002.2 985.8
Ю 3-7
{7}
23 км слаб. дождь 10/10 200 м
[]
-1.0 -1.0 100 -6 -6 1002.2 985.8
Ю 4-6
{9}
15 км слаб. ливневой дождь 10/10 200 м
[]
-0.7 -0.7 100 -7 -7 1001.6 985.3
ЮВ 4-6
{8}
3000 м слаб. снег 10/10 960 м
[]
-0.9 -0.9 100 -7 -7 1001.0 984.7
ЮВ 3-6
{7}
16 км слаб. ливневой снег 10/10 100 м
[]
-0.8 -0.8 100 -6 -6 1000.4 984.0 0.1
Ю 4-6
{7}
5000 м снежные зёрна {ливн. осадки} 10/10 100 м
[]
-0.8 -0.8 100 -7 -7 999.9 983.6
Ю 3-6
{6}
13 км снежные зёрна 10/10 200 м
[]
-0.6 -0.6 100 -6 -6 999.6 983.4
Ю 3-7
{7}
30 км слаб. снег 10/10 100 м
[]
-0.4 -0.4 100 -5 -5 999.6 983.4
Ю 3-5
{6}
50 км в посл. час дождь {ливн. осадки} 10/10 200 м
[]
-0.1 -0.1 100 -5 -5 999.7 983.5
Ю 3-5
{7}
8000 м слаб. дождь 10/10 200 м
[]
-0.2 -0.2 100 -5 -5 999.5 983.3
Ю 4-7
{7}
27 км в посл. час дождь 10/10 200 м
[]
0.0 0.0 100 -6 -6 999.6 983.4
Ю 3-6
{7}
22 км в посл. час дождь {ливн. осадки} 10/10 200 м
[]
-0.1 -0.1 100 -5 -5 999.9 983.7 -1.0 0.0 <0.5
Ю 4-6
{8}
9000 м слаб. снег 10/10 200 м
[]
-0.1 -0.1 100 -6 -6 1000.2 984.0
Ю 3-6
{6}
11 км ливневой дождь 10/10 200 м
[]
-0.2 -0.2 100 -5 -5 1000.8 984.5
Ю 3-6
{7}
8000 м снежные зёрна {ливн. осадки} 10/10 100 м
[]
-0.2 -0.2 100 -5 -5 1001.2 984.9
Ю 3-6
{7}
13 км снежные зёрна 10/10 100 м
[]
-0.1 -0.1 100 -5 -5 1001.4 985.2
Ю 3-5
{5}
11 км 10/10 100 м
[]
0.0 0.0 100 -5 -5 1001.5 985.2
Ю 3-6
{7}
6000 м слаб. ливневой дождь 10/10 100 м
[]
+0.1 +0.1 100 -5 -5 1001.7 985.4
Местоположение метеостанции Вийтасаари (Финляндия): широта 63.08 долгота 25.86 высота над уровнем моря 130 м.
В архиве по умолчанию представлена погода в Вийтасаари за последнюю неделю. Архивные данные за месяц целиком и за предыдущие месяцы, начиная с января 2011 года, Вы можете получить, выбрав интересующий диапазон дат из раскрывающегося списка и нажав кнопку "Найти!".
*Определитесь, кто Вы:
Внимание! Время в таблицах - всемирное. Для получения местного времени необходимо прибавить поправку, которая равна 1 ч.
Смотрите также архив погоды в соседних городах и на ближайших метеорологических станциях:
Партнеры нашего сайта:      
Пояснения к столбцам:
  • Ветер - указаны скорость ветра в м/с - средняя за 10 мин, порывы в срок и между сроками (в фигурных скобках) и направление, откуда дует ветер: С - северный,
  • СВ - северо-восточный, В - восточный, ЮВ - юго-восточный, Ю - южный, ЮЗ - юго-западный, З - западный, СЗ - северо-западный.
  • Видимость - горизонтальная дальность видимости в метрах или километрах. При видимости от 1 до 10 км при отсутствии осадков обычно наблюдается дымка, при ухудшении видимости до 1 км и менее - туман. В сухую погоду видимость может ухудшаться дымом, пылью или мглою.
  • Явления - указаны атмосферные явления, наблюдавшиеся в срок или в последний час перед сроком; фигурными скобками обозначены явления, наблюдавшиеся между сроками (за 1-3 часа до срока); квадратными скобками обозначены град или гололедные отложения с указанием их диаметра в мм.
  • Облачность - указаны через наклонную черту общая и нижняя облачность в баллах и высота нижней границы облаков в метрах; квадратными скобками обозначены формы облаков: Ci - перистые, Cs - перисто-слоистые, Cc - перисто-кучевые, Ac - высококучевые, As - высокослоистые, Sc - слоисто-кучевые, Ns - слоисто-дождевые, Cu - кучевые, Cb - кучево-дождевые. Подробнее классификацию облаков см. в Атласе облаков (PDF).
  • T - Температура воздуха - температура, измеренная на высоте 2 м над землей.
  • Td - Температура точки росы - температура, при понижении до которой содержащийся в воздухе водяной пар достигнет насыщения.
  • f - Относительная влажность воздуха - влажноcть воздуха, измеренная на высоте 2 м над землей.
  • Te - Эффективная температура - температура, которую ощущает одетый по сезону человек в тени. Характеристика душности погоды. При расчете учитывается влияние влажности воздуха и скорости ветра на теплоощущения человека.
  • Tes - Эффективная температура на солнце - температура, которую ощущает человек, с поправкой на солнечный нагрев. Характеристика знойности погоды. Зависит от высоты солнца над горизонтом, облачности и скорости ветра. Ночью, в пасмурную погоду, а также при ветре 12 м/с и более поправка равна нулю.
  • P - Атмосферное давление - приведенное к уровню моря атмосферное давление.
  • Po - Атмосферное давление - измеренное на уровне метеостанции атмосферное давление.
  • Tmin - Минимальная температура - минимум температуры воздуха на высоте 2 м над землей.
  • Tmax - Максимальная температура - максимум температуры воздуха на высоте 2 м над землей.
  • R - Количество осадков - Количество выпавших осадков за период времени, мм. При наведении курсора мыши на число - период времени, за который выпало указанное количество осадков.
  • R24 - Количество осадков - Количество выпавших осадков за 24 часа, мм.
  • S - Снежный покров - Высота снежного покрова, см. При наведении курсора мыши на число - состояние снежного покрова и степень покрытия местности в баллах.